FW7008 Weather Reports


Display with metric or nautical units.
time (UTC)temp
F
wind
direction
speed
MPH
gust
MPH
rain 1hr
in
rain 24hr
in
rain mn
in
humidity
%
barometer
mb
20260503222024 64 246 8.0 9.0 0.00 0.00 0.00 75 1014.6
20260503221522 65 253 3.0 3.0 0.00 0.00 0.00 75 1014.2
20260503221019 64 176 5.0 9.0 0.00 0.00 0.00 75 1014.6
20260503220515 65 254 7.0 10.0 0.00 0.00 0.00 72 1014.2
20260503220012 65 257 6.0 10.0 0.00 0.00 0.00 72 1014.6
20260503215509 65 198 4.0 7.0 0.00 0.00 0.00 73 1014.6
20260503215006 65 259 7.0 11.0 0.00 0.00 0.00 72 1014.2
20260503214504 64 246 11.0 14.0 0.00 0.00 0.00 72 1014.9
20260503214001 65 234 7.0 8.0 0.00 0.00 0.00 73 1014.6
20260503213459 64 181 9.0 10.0 0.00 0.00 0.00 73 1014.6
20260503212955 65 221 7.0 11.0 0.00 0.00 0.00 72 1014.9
20260503212453 65 205 8.0 11.0 0.00 0.00 0.00 71 1014.9
20260503211950 65 225 8.0 11.0 0.00 0.00 0.00 72 1014.6
20260503211447 65 177 9.0 10.0 0.00 0.00 0.00 71 1014.9
20260503210942 65 208 4.0 7.0 0.00 0.00 0.00 72 1014.9
20260503210439 65 242 9.0 11.0 0.00 0.00 0.00 72 1014.9
20260503205934 66 175 8.0 10.0 0.00 0.00 0.00 70 1014.9
20260503205432 65 250 7.0 10.0 0.00 0.00 0.00 67 1014.9
20260503204927 66 234 6.0 8.0 0.00 0.00 0.00 69 1014.9
20260503204425 66 223 8.0 10.0 0.00 0.00 0.00 68 1014.9
20260503203921 66 218 6.0 8.0 0.00 0.00 0.00 70 1014.9
20260503203419 65 229 3.0 5.0 0.00 0.00 0.00 69 1014.9
20260503202916 66 236 0.0 2.0 0.00 0.00 0.00 68 1014.9
20260503202414 65 189 0.0 0.0 0.00 0.00 0.00 70 1014.9
20260503201912 66 260 10.0 10.0 0.00 0.00 0.00 66 1014.9
20260503201409 65 230 6.0 9.0 0.00 0.00 0.00 68 1014.9
20260503200907 65 269 7.0 9.0 0.00 0.00 0.00 69 1014.9
20260503200402 66 273 7.0 9.0 0.00 0.00 0.00 67 1014.9
20260503195859 65 260 7.0 10.0 0.00 0.00 0.00 66 1014.9
20260503195356 66 237 7.0 8.0 0.00 0.00 0.00 65 1014.9
20260503194853 65 240 7.0 8.0 0.00 0.00 0.00 65 1014.9
20260503194349 64 242 6.0 7.0 0.00 0.00 0.00 68 1015.2
20260503193846 65 246 4.0 7.0 0.00 0.00 0.00 67 1015.2
20260503193341 65 174 5.0 7.0 0.00 0.00 0.00 68 1015.2
20260503192837 65 238 6.0 7.0 0.00 0.00 0.00 71 1015.2
20260503192333 65 218 6.0 8.0 0.00 0.00 0.00 70 1015.2
20260503191829 66 169 0.0 0.0 0.00 0.00 0.00 70 1015.2
20260503191326 65 250 5.0 6.0 0.00 0.00 0.00 70 1015.2
20260503190823 66 245 8.0 9.0 0.00 0.00 0.00 69 1015.6
20260503190321 66 237 0.0 0.0 0.00 0.00 0.00 66 1015.6
20260503185817 66 244 0.0 0.0 0.00 0.00 0.00 67 1015.6
20260503185313 66 247 6.0 7.0 0.00 0.00 0.00 67 1015.6
20260503184808 66 262 0.0 0.0 0.00 0.00 0.00 67 1015.6
20260503184304 66 277 4.0 6.0 0.00 0.00 0.00 68 1015.2
20260503183800 66 248 0.0 0.0 0.00 0.00 0.00 68 1015.6
20260503183258 65 240 0.0 0.0 0.00 0.00 0.00 69 1015.6
20260503182755 66 184 7.0 7.0 0.00 0.00 0.00 69 1015.6
20260503182254 66 151 5.0 6.0 0.00 0.00 0.00 69 1015.6
20260503181750 65 221 4.0 7.0 0.00 0.00 0.00 69 1015.6
20260503181247 64 202 0.0 0.0 0.00 0.00 0.00 72 1015.6
20260503180744 64 218 2.0 3.0 0.00 0.00 0.00 72 1015.6
20260503180242 63 247 7.0 9.0 0.00 0.00 0.00 72 1015.9
20260503175738 63 220 5.0 7.0 0.00 0.00 0.00 71 1015.6
20260503175236 63 245 7.0 8.0 0.00 0.00 0.00 71 1015.6
20260503174732 64 254 0.0 0.0 0.00 0.00 0.00 73 1015.6
20260503174231 63 227 0.0 0.0 0.00 0.00 0.00 76 1015.6
20260503173730 63 215 0.0 0.0 0.00 0.00 0.00 76 1015.6
20260503173226 63 201 0.0 0.0 0.00 0.00 0.00 77 1015.6
20260503172724 62 173 0.0 0.0 0.00 0.00 0.00 79 1015.6
20260503172221 64 223 0.0 0.0 0.00 0.00 0.00 76 1015.6
20260503171717 63 160 0.0 0.0 0.00 0.00 0.00 74 1015.6
20260503171214 63 151 0.0 0.0 0.00 0.00 0.00 74 1015.6
20260503170711 63 215 0.0 0.0 0.00 0.00 0.00 77 1015.2
20260503170208 62 261 0.0 0.0 0.00 0.00 0.00 79 1015.2
20260503160130 62 184 0.0 0.0 0.00 0.00 0.00 79 1014.9
20260503150600 61 131 0.0 0.0 0.00 0.00 0.00 85 1014.9
20260503130949 59 246 0.0 0.0 0.00 0.00 0.00 90 1013.9
20260503130447 59 251 0.0 0.0 0.00 0.00 0.00 91 1013.9
20260503110343 60 168 0.0 0.0 0.00 0.00 0.00 89 1013.2
20260503090224 60 157 0.0 0.0 0.00 0.00 0.00 87 1014.2
20260503081151 60 171 0.0 0.0 0.00 0.00 0.00 87 1014.2
20260503080646 60 181 0.0 0.0 0.00 0.00 0.00 88 1014.6
20260503080144 60 151 0.0 0.0 0.00 0.00 0.00 88 1014.2
20260503072615 60 157 0.0 0.0 0.00 0.00 0.00 90 1013.9
20260503072112 60 214 0.0 0.0 0.00 0.00 0.00 90 1014.2
20260503071608 60 193 0.0 0.0 0.00 0.00 0.00 90 1014.2
20260503071105 60 199 0.0 0.0 0.00 0.00 0.00 90 1013.9
20260503070602 60 161 0.0 0.0 0.00 0.00 0.00 91 1013.9
20260503055014 60 219 0.0 0.0 0.00 0.00 0.00 95 1013.9
20260503054510 60 218 0.0 0.0 0.00 0.00 0.00 95 1013.9
20260503054008 60 228 0.0 0.0 0.00 0.00 0.00 95 1013.9
20260503053506 59 169 0.0 0.0 0.00 0.00 0.00 95 1013.9
20260503053003 60 244 0.0 0.0 0.00 0.00 0.00 95 1013.9
20260503052500 60 227 0.0 0.0 0.00 0.00 0.00 95 1013.9
20260503051956 59 255 0.0 0.0 0.00 0.00 0.00 95 1013.9
20260503051452 60 261 0.0 0.0 0.00 0.00 0.00 95 1013.9
20260503050949 59 227 0.0 0.0 0.00 0.00 0.00 95 1013.9
20260503050445 60 252 0.0 1.0 0.00 0.00 0.00 95 1013.9
20260503045943 60 250 0.0 0.0 0.00 0.00 0.00 95 1013.9
20260503045440 60 212 0.0 0.0 0.00 0.00 0.00 95 1013.9
20260503044937 60 226 0.0 0.0 0.00 0.00 0.00 95 1013.9
20260503044434 60 169 0.0 0.0 0.00 0.00 0.00 95 1013.9
20260503043932 60 238 0.0 0.0 0.00 0.00 0.00 95 1013.9
20260503043427 59 213 0.0 0.0 0.00 0.00 0.00 95 1013.9
20260503042924 59 244 3.0 6.0 0.00 0.00 0.00 95 1013.5
20260503042421 59 231 0.0 0.0 0.00 0.00 0.00 95 1013.2
20260503041917 59 249 0.0 0.0 0.00 0.00 0.00 95 1013.5
20260503041414 59 238 0.0 0.0 0.00 0.00 0.00 95 1013.5
20260503040912 59 235 0.0 1.0 0.00 0.00 0.00 95 1013.2
20260503040409 59 224 0.0 0.0 0.00 0.00 0.00 95 1012.9
20260503035906 59 234 0.0 0.0 0.00 0.00 0.00 95 1012.9
20260503035403 60 240 0.0 1.0 0.00 0.00 0.00 95 1012.9
20260503034900 60 183 0.0 0.0 0.00 0.00 0.00 94 1012.9
20260503034358 60 218 0.0 1.0 0.00 0.00 0.00 94 1012.9
20260503033854 60 234 0.0 0.0 0.00 0.00 0.00 94 1012.9
20260503033352 60 225 0.0 0.0 0.00 0.00 0.00 93 1012.9
20260503032850 60 267 7.0 8.0 0.00 0.00 0.00 93 1012.5
20260503032349 60 258 5.0 8.0 0.00 0.00 0.00 93 1012.9
20260503031846 60 219 1.0 3.0 0.00 0.00 0.00 93 1012.5
20260503031344 60 221 0.0 0.0 0.00 0.00 0.00 93 1012.5
20260503030839 60 154 0.0 1.0 0.00 0.00 0.00 93 1012.5
20260503030336 60 175 0.0 0.0 0.00 0.00 0.00 93 1012.2
20260503025833 60 205 0.0 0.0 0.00 0.00 0.00 93 1012.2
20260503025330 60 178 1.0 3.0 0.00 0.00 0.00 93 1012.2
20260503024827 60 253 8.0 9.0 0.00 0.00 0.00 92 1011.8
20260503024324 60 235 0.0 0.0 0.00 0.00 0.00 92 1011.8
20260503023820 60 241 0.0 0.0 0.00 0.00 0.00 92 1011.8
20260503023318 60 203 3.0 5.0 0.00 0.00 0.00 92 1011.5
20260503022814 60 231 5.0 7.0 0.00 0.00 0.00 91 1011.8
20260503022314 61 227 0.0 0.0 0.00 0.00 0.00 91 1011.5
20260503021811 61 231 7.0 10.0 0.00 0.00 0.00 91 1011.5
20260503021307 61 269 0.0 0.0 0.00 0.00 0.00 90 1011.5
20260503020805 62 264 3.0 7.0 0.00 0.00 0.00 88 1011.5
20260503020303 62 243 0.0 0.0 0.00 0.00 0.00 88 1011.5
20260503015758 62 220 5.0 9.0 0.00 0.00 0.00 88 1011.5
20260503015256 62 224 0.0 0.0 0.00 0.00 0.00 88 1011.8
20260503014751 63 180 1.0 6.0 0.00 0.00 0.00 87 1011.5
20260503014249 63 262 0.0 0.0 0.00 0.00 0.00 86 1011.5
20260503013746 63 170 6.0 8.0 0.00 0.00 0.00 86 1011.8
20260503013244 63 165 3.0 6.0 0.00 0.00 0.00 86 1011.5
20260503012741 63 168 2.0 5.0 0.00 0.00 0.00 86 1011.5
20260503012238 63 247 10.0 14.0 0.00 0.00 0.00 86 1011.5
20260503011735 64 265 8.0 10.0 0.00 0.00 0.00 85 1011.5
20260503011232 64 255 3.0 5.0 0.00 0.00 0.00 84 1011.5
20260503010728 64 157 6.0 10.0 0.00 0.00 0.00 85 1011.2
20260503010225 64 259 0.0 0.0 0.00 0.00 0.00 84 1011.5
20260503005723 64 236 8.0 9.0 0.00 0.00 0.00 83 1011.5
20260503005220 64 201 2.0 5.0 0.00 0.00 0.00 84 1011.2
20260503004716 64 264 8.0 13.0 0.00 0.00 0.00 83 1011.5
20260503004215 64 277 10.0 15.0 0.00 0.00 0.00 83 1011.2
20260503003711 64 258 6.0 7.0 0.00 0.00 0.00 84 1011.5
20260503003208 64 269 8.0 11.0 0.00 0.00 0.00 83 1011.5
20260503002705 64 221 11.0 11.0 0.00 0.00 0.00 82 1011.5
20260503002202 64 245 6.0 7.0 0.00 0.00 0.00 82 1011.5
20260503001657 64 250 10.0 14.0 0.00 0.00 0.00 82 1011.8
20260503001154 64 238 8.0 9.0 0.00 0.00 0.00 82 1011.8
20260503000652 64 222 6.0 9.0 0.00 0.00 0.00 82 1011.5
20260503000149 65 241 7.0 10.0 0.00 0.00 0.00 80 1011.8
20260502235645 65 205 6.0 8.0 0.00 0.00 0.00 82 1011.8
20260502235138 64 240 5.0 7.0 0.00 0.00 0.00 82 1011.5
20260502234634 64 241 8.0 10.0 0.00 0.00 0.00 81 1011.8
20260502234131 66 244 12.0 15.0 0.00 0.00 0.00 79 1011.8
20260502233627 66 201 7.0 9.0 0.00 0.00 0.00 79 1011.8
20260502233124 64 224 5.0 7.0 0.00 0.00 0.00 81 1011.8
20260502232620 64 250 6.0 9.0 0.00 0.00 0.00 81 1011.8
20260502232118 65 246 3.0 8.0 0.00 0.00 0.00 80 1012.2
20260502231614 64 213 2.0 3.0 0.00 0.00 0.00 82 1012.2
20260502231112 64 232 9.0 10.0 0.00 0.00 0.00 81 1012.2
20260502230610 65 182 7.0 9.0 0.00 0.00 0.00 80 1012.2
20260502230109 66 248 7.0 8.0 0.00 0.00 0.00 79 1012.2
20260502225603 65 265 9.0 10.0 0.00 0.00 0.00 80 1012.2
20260502225101 65 203 1.0 5.0 0.00 0.00 0.00 80 1012.5
20260502224557 64 242 13.0 16.0 0.00 0.00 0.00 82 1012.2
20260502224054 65 275 10.0 14.0 0.00 0.00 0.00 80 1012.2
20260502223552 65 243 8.0 9.0 0.00 0.00 0.00 80 1012.5
20260502223050 65 242 12.0 14.0 0.00 0.00 0.00 80 1013.2
20260502222546 66 286 8.0 11.0 0.00 0.00 0.00 79 1012.9